Weather History for New Iberia, LA

Change the Weather History Date:

Wednesday, November 21, 2012

  Actual Average Record
Temperature  
Mean Temperature 63 °F 60 °F  
Max Temperature 79 °F 70 °F 84 °F (2011)
Min Temperature 47 °F 49 °F 28 °F (1952)
Degree Days  
Heating Degree Days 2 7  
Month to date heating degree days 103 90  
Since 1 July heating degree days 145 124  
Cooling Degree Days 0 1  
Month to date cooling degree days 45 34  
Year to date cooling degree days 3240 2779  
Growing Degree Days 12 (Base 50)    
Moisture  
Dew Point 48 °F    
Average Humidity 62    
Maximum Humidity 93    
Minimum Humidity 31    
Precipitation  
Precipitation 0.00 in 0.15 in 0.95 in (2009)
Month to date precipitation 1.89 2.58  
Year to date precipitation 48.46 53.02  
Sea Level Pressure  
Sea Level Pressure 30.20 in    
Wind  
Wind Speed 4 mph (NNW)    
Max Wind Speed 15 mph    
Max Gust Speed 20 mph    
Visibility 9 miles    
Events      
T = Trace of Precipitation, MM = Missing Value Source: NWS Daily Summary

Daily Weather History Graph

Daily Weather History Graph

Search for Another Location

Airport:

Trip Planner

Search our weather history database for the weather conditions in past years. The results will help you decide how hot, cold, wet, or windy it might be!

Date:

Astronomy

Nov. 21, 2012 Rise Set
Actual Time 6:38 AM CST 5:08 PM CST
Civil Twilight 6:12 AM CST 5:34 PM CST
Nautical Twilight 5:43 AM CST 6:03 PM CST
Astronomical Twilight 5:14 AM CST 6:32 PM CST
Moon 1:01 PM CST (11/21) 12:24 AM CST (11/21)
Length of Visible Light 11h 21m
Length of Day
10h 30m
First Quarter, 62% of the Moon is Illuminated
Nov 21
First Quarter
Nov 28
Full
Dec 6
Last Quarter
Dec 13
New
Dec 19
First Quarter

Hourly Weather History & Observations

Time (CST) Temp. Dew Point Humidity Pressure Visibility Wind Dir Wind Speed Gust Speed Precip Events Conditions
12:53 AM 52.0 °F 46.9 °F 83% 30.18 in 10.0 mi Calm Calm - N/A   Clear
1:53 AM 50.0 °F 46.0 °F 86% 30.19 in 10.0 mi Calm Calm - N/A   Clear
2:53 AM 48.0 °F 44.1 °F 86% 30.19 in 9.0 mi Calm Calm - N/A   Clear
3:53 AM 50.0 °F 45.0 °F 83% 30.19 in 9.0 mi Calm Calm - N/A   Clear
4:53 AM 48.0 °F 44.1 °F 86% 30.19 in 8.0 mi Calm Calm - N/A   Clear
5:53 AM 46.9 °F 44.1 °F 90% 30.21 in 8.0 mi Calm Calm - N/A   Clear
6:53 AM 48.9 °F 46.0 °F 90% 30.22 in 4.0 mi Calm Calm - N/A   Clear
7:53 AM 57.0 °F 51.1 °F 81% 30.24 in 7.0 mi Calm Calm - N/A   Clear
8:53 AM 64.9 °F 52.0 °F 63% 30.25 in 10.0 mi WNW 4.6 mph - N/A   Clear
9:53 AM 71.1 °F 54.0 °F 55% 30.25 in 10.0 mi NW 5.8 mph - N/A   Clear
10:53 AM 73.9 °F 55.0 °F 52% 30.24 in 10.0 mi NNW 10.4 mph - N/A   Clear
11:53 AM 75.9 °F 55.0 °F 48% 30.21 in 10.0 mi NW 8.1 mph - N/A   Clear
12:53 PM 78.1 °F 52.0 °F 40% 30.18 in 10.0 mi NW 12.7 mph 18.4 mph N/A   Partly Cloudy
1:53 PM 79.0 °F 50.0 °F 36% 30.16 in 10.0 mi North 10.4 mph - N/A   Partly Cloudy
2:53 PM 79.0 °F 48.0 °F 34% 30.14 in 10.0 mi NW 9.2 mph - N/A   Clear
3:53 PM 77.0 °F 44.1 °F 31% 30.15 in 10.0 mi North 8.1 mph - N/A   Clear
4:53 PM 68.0 °F 45.0 °F 43% 30.16 in 10.0 mi NNE 5.8 mph - N/A   Clear
5:53 PM 66.0 °F 44.1 °F 45% 30.17 in 10.0 mi NNE 4.6 mph - N/A   Clear
6:53 PM 62.1 °F 46.0 °F 56% 30.18 in 10.0 mi Calm Calm - N/A   Clear
7:53 PM 57.9 °F 46.9 °F 67% 30.20 in 10.0 mi North 3.5 mph - N/A   Clear
8:53 PM 60.1 °F 46.0 °F 60% 30.20 in 10.0 mi NNE 4.6 mph - N/A   Clear
9:53 PM 55.0 °F 46.9 °F 74% 30.21 in 10.0 mi North 3.5 mph - N/A   Clear
10:53 PM 54.0 °F 46.0 °F 75% 30.20 in 10.0 mi Calm Calm - N/A   Clear
11:53 PM 52.0 °F 45.0 °F 77% 30.20 in 10.0 mi Calm Calm - N/A   Clear